Tracking 17267 objects as of 31-August-2015
HD Live streaming from Space Station

COSMOS 2251 DEB

Track COSMOS 2251 DEB now!
10-day predictions
COSMOS 2251 DEB is classified as:


NORAD ID: 35442
Int'l Code: 1993-036AKL
Perigee: 748.7 km
Apogee: 769.4 km
Inclination: 74.0 °
Period: 99.9 minutes
Semi major axis: 7130 km
RCS: 0.0032 m2 (small)
Launch date: June 16, 1993
Source: Commonwealth of Independent States (former USSR) (CIS)

Note: This is SATELLITE DEBRIS
Your satellite tracking list
Your tracking list is empty





NASA's NSSDC Master Catalog

Two Line Element Set (TLE):
1 35442U 93036AKL 15240.91934148 +.00001692 +00000-0 +52306-3 0  9997
2 35442 074.0445 316.7154 0014512 221.6646 259.8601 14.41998833328702

Source of the keplerian elements: AFSPC

N2YO: 337